Weather Roundup
Issued by NWS Springfield, MO

Home | Current Version | Previous Version | Text Only | Print | Product List | Glossary On
Versions: 1 2 3 4 5 6 7 8 9 10 11 12 13 14 15 16 17 18 19 20 21 22 23 24 25 26 27 28 29 30 31 32 33 34 35 36 37 38 39 40 41 42 43 44 45 46 47 48 49 50
000
NZUS99 KSGF 031759
HRRSGF

HOURLY WEATHER
NATIONAL WEATHER SERVICE SPRINGFIELD MO
100 PM CDT WED JUN 03 2015

......SGF CWA......

CITY           SKY/WX    TMP DP  RH WIND       PRES   REMARKS
SPRINGFIELD    FAIR      76  66  71 VRB6      30.01S
6HR MIN TEMP:  61; 6HR MAX TEMP:  76;

JOPLIN         FAIR      82  68  62 S10       29.98S
6HR MIN TEMP:  67; 6HR MAX TEMP:  82;

WEST PLAINS    CLOUDY    67  60  78 SE5       30.06F
6HR MIN TEMP:  58; 6HR MAX TEMP:  67;

ROLLA          PTSUNNY   70  63  78 VRB7      30.03S
6HR MIN TEMP:  56; 6HR MAX TEMP:  70;

OSAGE BEACH    CLOUDY    72  63  73 CALM      30.03R
BRANSON        MOSUNNY   75  66  73 CALM      30.03S

......SURROUNDING SGF CWA......

CITY           SKY/WX    TMP DP  RH WIND       PRES   REMARKS
CHANUTE        FAIR      82  68  62 S15       29.95R
PARSONS        FAIR      82  69  64 S9        29.97R
COFFEYVILLE    FAIR      81  68  64 S12       29.94S
EMPORIA        FAIR      79  68  69 SE12G18   29.92F
SILOAM SPRINGS FAIR      79  63  57 S8        30.01F
HARRISON AR    PTSUNNY   77  66  68 SE8       30.02S
NEAR YELLVILLE FAIR      77  64  65 E8        30.01S

......KANSAS AND MISSOURI......

CITY           SKY/WX    TMP DP  RH WIND       PRES   REMARKS
KANSAS CTY INT LGT RAIN  66  65  96 SE23G31   29.89F
DOWNTOWN KC    LGT RAIN  66  62  87 E17G23    29.90F
COLUMBIA       LGT RAIN  65  63  93 CALM      30.04S
SEDALIA        RAIN      65  63  93 E6        30.04S FOG
ST JOSEPH      TSTM      67  64  90 SE25G32   29.82F
ST LOUIS       PTSUNNY   71  57  61 VRB6      30.05S
SPIRIT OF STL  PTSUNNY   69  61  75 S7        30.03F
KIRKSVILLE     CLOUDY    65  63  93 S8        29.99F
WICHITA        PTSUNNY   85  67  54 S12       29.88F
TOPEKA         FAIR      69  67  93 SE15      29.95R
OLATHE         LGT RAIN  63  62  97 SE12      30.00F

......TENNESSEE......

CITY           SKY/WX    TMP DP  RH WIND       PRES   REMARKS
MEMPHIS        PTSUNNY   76  59  55 NW6       30.02F
NASHVILLE      CLOUDY    70  59  68 N6        30.04S

......ARKANSAS.......

CITY           SKY/WX    TMP DP  RH WIND       PRES   REMARKS
FAYETTEVILLE   FAIR      80  66  62 S9        30.00F
FT SMITH       FAIR      82  64  54 E5        29.97F
LITTLE ROCK    CLOUDY    77  60  55 CALM      30.02F

......OKLAHOMA.......

CITY           SKY/WX    TMP DP  RH WIND       PRES   REMARKS
TULSA          CLOUDY    85  67  54 S17       29.92S
PONCA CITY     FAIR      87  68  52 SE18      29.88R HX  90
MCALESTER      FAIR      84  66  54 S8        29.96F
OKLAHOMA CITY  FAIR      86  66  51 S21G26    29.89F

......IOWA............

CITY           SKY/WX    TMP DP  RH WIND       PRES   REMARKS
DES MOINES     CLOUDY    71  63  75 S16       29.87S
QUAD CITIES    FAIR      75  58  55 S10G20    29.97F

......ILLINOIS........

CITY           SKY/WX    TMP DP  RH WIND       PRES   REMARKS
QUINCY         PTSUNNY   67  58  72 S12       30.02S
CHICAGO        MOSUNNY   72  54  53 VRB7      30.03F




USA.gov is the U.S. government's official web portal to all federal, state and local government web resources and services.